Stillwater, OK

4:52 AM CDT on July 27, 2017 (GMT -0500)
Stillwater Municipal

Weather History for KSWO - December, 2012

Change the Weather History Date:

Friday, December 28, 2012

  Actual Average Record
Temperature  
Mean Temperature 28 °F -  
Max Temperature 36 °F 47 °F 69 °F (1999)
Min Temperature 21 °F 24 °F 18 °F (2014)
Degree Days  
Heating Degree Days 36    
Moisture  
Dew Point 17 °F    
Average Humidity 62    
Maximum Humidity 86    
Minimum Humidity 37    
Precipitation  
Precipitation 0.00 in - - ()
Sea Level Pressure  
Sea Level Pressure 30.05 in    
Wind  
Wind Speed 6 mph (NW)    
Max Wind Speed 15 mph    
Max Gust Speed 22 mph    
Visibility 9 miles    
Events      
Averages and records for this station are not official NWS values.
T = Trace of Precipitation, MM = Missing Value Source: NWS Daily Summary

Daily Weather History Graph

Daily Weather History Graph

Search for Another Location

Airport or City:

Trip Planner

Search our weather history database for the weather conditions in past years. The results will help you decide how hot, cold, wet, or windy it might be!

Date:

Astronomy

Dec. 28, 2012 Rise Set
Actual Time 7:38 AM CST 5:21 PM CST
Civil Twilight 7:09 AM CST 5:50 PM CST
Nautical Twilight 6:37 AM CST 6:22 PM CST
Astronomical Twilight 6:06 AM CST 6:54 PM CST
Moon 5:57 PM CST (12/28) 7:35 AM CST (12/28)
Length of Visible Light 10h 40m
Length of Day
9h 43m
Full, 100% of the Moon is Illuminated
Dec 28
Full
Jan 4
Last Quarter
Jan 11
New
Jan 18
First Quarter
Jan 26
Full

Hourly Weather History & Observations

Time (CST) Temp. Windchill Dew Point Humidity Pressure Visibility Wind Dir Wind Speed Gust Speed Precip Events Conditions
12:53 AM 30.0 °F - 26.1 °F 85% 29.98 in 7.0 mi Calm Calm - N/A   Overcast
1:53 AM 30.0 °F - 26.1 °F 85% 29.99 in 7.0 mi Calm Calm - N/A   Overcast
2:53 AM 30.9 °F - 26.1 °F 82% 30.01 in 6.0 mi Calm Calm - N/A   Haze
3:53 AM 30.0 °F - 26.1 °F 85% 29.98 in 6.0 mi Calm Calm - N/A   Overcast
4:30 AM 30.2 °F 24.3 °F 26.6 °F 86% 29.97 in 6.0 mi WNW 5.8 mph - N/A   Mostly Cloudy
4:53 AM 30.9 °F 24.3 °F 25.0 °F 79% 29.98 in 8.0 mi NW 6.9 mph - N/A   Overcast
5:34 AM 30.2 °F 20.8 °F 23.0 °F 75% 29.95 in 10.0 mi NNW 11.5 mph - N/A   Overcast
5:53 AM 30.9 °F 22.8 °F 21.9 °F 69% 29.98 in 10.0 mi North 9.2 mph - N/A   Overcast
6:18 AM 30.2 °F 23.4 °F 21.2 °F 69% 29.98 in 10.0 mi NNW 6.9 mph - N/A   Overcast
6:53 AM 30.9 °F 24.3 °F 21.9 °F 69% 30.00 in 10.0 mi NNW 6.9 mph - N/A   Overcast
7:53 AM 30.0 °F 25.2 °F 21.0 °F 69% 30.01 in 10.0 mi NNW 4.6 mph - N/A   Overcast
8:53 AM 30.0 °F 19.1 °F 19.9 °F 66% 30.04 in 10.0 mi NNW 15.0 mph 19.6 mph N/A   Overcast
10:53 AM 30.9 °F 20.2 °F 19.0 °F 61% 30.06 in 10.0 mi NNW 15.0 mph - N/A   Overcast
11:53 AM 34.0 °F 24.6 °F 19.9 °F 56% 30.05 in 10.0 mi NW 13.8 mph 21.9 mph N/A   Mostly Cloudy
12:53 PM 33.1 °F 23.9 °F 18.0 °F 54% 30.04 in 10.0 mi NW 12.7 mph 19.6 mph N/A   Mostly Cloudy
1:53 PM 36.0 °F 26.7 °F 18.0 °F 48% 30.03 in 10.0 mi NW 15.0 mph - N/A   Mostly Cloudy
2:53 PM 36.0 °F 26.7 °F 12.9 °F 39% 30.03 in 10.0 mi NW 15.0 mph 21.9 mph N/A   Clear
3:53 PM 35.1 °F 26.4 °F 12.0 °F 39% 30.04 in 10.0 mi NW 12.7 mph 19.6 mph N/A   Clear
4:53 PM 33.1 °F 24.9 °F 9.0 °F 37% 30.07 in 10.0 mi NNW 10.4 mph 20.7 mph N/A   Clear
5:53 PM 30.0 °F 23.2 °F 9.0 °F 41% 30.09 in 10.0 mi NW 6.9 mph - N/A   Clear
6:53 PM 27.0 °F 19.5 °F 8.1 °F 45% 30.11 in 10.0 mi NW 6.9 mph - N/A   Clear
7:53 PM 26.1 °F 18.4 °F 8.1 °F 47% 30.14 in 10.0 mi NW 6.9 mph - N/A   Clear
8:53 PM 24.1 °F 16.0 °F 8.1 °F 51% 30.17 in 10.0 mi NW 6.9 mph - N/A   Clear
9:53 PM 21.9 °F 13.4 °F 8.1 °F 55% 30.17 in 10.0 mi NNW 6.9 mph - N/A   Clear
10:53 PM 21.9 °F 12.5 °F 8.1 °F 55% 30.20 in 10.0 mi NW 8.1 mph - N/A   Clear
11:53 PM 21.0 °F 12.4 °F 8.1 °F 57% 30.21 in 10.0 mi NW 6.9 mph - N/A   Clear